Location: Newark
(37.6333°N, 5.2500°W)
Time: 21:21:23
(UTC+00:00)

N. Korean satellite - Visible Passes

Search period start: 15 October 2019 00:00
Search period end: 25 October 2019 00:00
Orbit: 455 x 508 km, 97.2° (Epoch: 14 October)

Date Brightness Start Highest point End Pass type
(mag) Time Alt. Az. Time Alt. Az. Time Alt. Az.
15 Oct 9.9 05:25:26 10° NE 05:27:54 17° E 05:30:23 10° SE visible
17 Oct 9.6 18:14:56 10° SSW 18:17:35 21° W 18:20:17 10° NW visible
18 Oct 8.9 05:42:18 10° NE 05:45:30 29° E 05:48:43 10° SSE visible
19 Oct 10.1 05:18:04 10° ENE 05:20:05 14° E 05:22:06 10° SE visible
20 Oct 10.2 18:33:39 10° WSW 18:35:11 12° W 18:36:43 10° WNW visible
21 Oct 7.6 05:59:28 10° NNE 06:03:01 52° E 06:06:37 10° S visible
21 Oct 9.1 18:06:48 10° SSW 18:09:44 27° W 18:12:42 10° NW visible
22 Oct 9.3 05:34:40 10° NE 05:37:40 24° E 05:40:41 10° SSE visible
23 Oct 10.4 05:10:55 10° ENE 05:12:13 12° E 05:13:31 10° ESE visible
24 Oct 9.9 18:25:06 10° SW 18:27:15 16° W 18:29:27 10° NW visible
